Date String (YYYY-MM-DD hh:mm:ss) UTC,Instrument flags,absolute air pressure of the measurement (hPa),sample flow rate (lpm),inlet stack bypass flow (lpm),air temperature of the measurement (°C),ambient temperature measured by the external sensor (°C),aerosol sample conditioner tube jacket temperature (°C),OPC LED temperature (°C),internal box temperature (°C),relative humidity of the measurement (%),span deviation,mass concentration of particles derived from Lorenz-Mie calculation of OPC scattering (μg/m³),mass concentration of particles derived from Lorenz-Mie calculation of OPC scattering (μg/m³),mass concentration of particles derived from Lorenz-Mie calculation of OPC scattering (μg/m³)
DateTimeUTC,F1_M11,P_M11,Q1_M11,Q2_M11,T1_M11,T2_M11,T3_M11,T4_M11,T5_M11,U1_M11,ZSPAN_M11,X2_M11,X0_M11,X1_M11
2024-02-29 19:00:00,SystemResetWarning,0824.9,5.01,000.00,022.3,021.7,000.0,030.3,023.9,09.0,0000.0,0005.46,0013.22,0004.14
2024-02-29 19:01:00,SystemResetWarning,0824.9,5.01,000.00,022.3,021.7,000.0,030.3,023.9,09.0,0000.0,0005.42,0013.15,0004.14
2024-02-29 19:02:00,SystemResetWarning,0824.9,5.00,000.00,022.3,021.8,000.0,030.3,024.0,09.0,0000.0,0005.45,0013.88,0004.16
2024-02-29 19:03:00,SystemResetWarning,0824.9,5.00,000.00,022.3,021.8,000.0,030.3,024.0,09.3,0000.0,0005.49,0014.72,0004.19
2024-02-29 19:04:00,SystemResetWarning,0824.9,5.00,000.00,022.3,021.8,000.0,030.4,024.0,09.2,0000.0,0005.55,0015.30,0004.23
2024-02-29 19:05:00,SystemResetWarning,0824.8,5.00,000.00,022.4,021.8,000.0,030.4,024.0,09.3,0000.0,0005.64,0015.55,0004.27
2024-02-29 19:06:00,SystemResetWarning,0824.9,5.00,000.00,022.4,021.8,000.0,030.4,024.1,09.0,0000.0,0005.73,0016.05,0004.33
2024-02-29 19:07:00,SystemResetWarning,0824.9,5.00,000.00,022.4,021.9,000.0,030.4,024.1,09.0,0000.0,0005.77,0015.96,0004.38
2024-02-29 19:08:00,SystemResetWarning,0824.8,5.00,000.00,022.4,021.9,000.0,030.4,024.1,08.8,0000.0,0005.80,0015.31,0004.43
2024-02-29 19:09:00,SystemResetWarning,0824.8,5.00,000.00,022.4,021.9,000.0,030.5,024.1,09.1,0000.0,0005.82,0015.35,0004.45
2024-02-29 19:10:00,SystemResetWarning,0824.7,5.00,000.00,022.5,021.9,000.0,030.5,024.1,09.0,0000.0,0005.88,0015.10,0004.48
2024-02-29 19:11:00,SystemResetWarning,0824.7,5.00,000.00,022.5,021.9,000.0,030.5,024.2,09.0,0000.0,0005.86,0014.98,0004.51
2024-02-29 19:12:00,SystemResetWarning,0824.7,5.00,000.00,022.5,022.0,000.0,030.5,024.2,08.9,0000.0,0005.88,0015.15,0004.52
2024-02-29 19:13:00,SystemResetWarning,0824.7,5.00,000.00,022.5,022.0,000.0,030.5,024.2,08.9,0000.0,0005.87,0014.46,0004.52
2024-02-29 19:14:00,SystemResetWarning,0824.7,5.00,000.00,022.5,022.0,000.0,030.5,024.2,08.6,0000.0,0005.83,0013.88,0004.51
2024-02-29 19:15:00,SystemResetWarning,0824.7,5.00,000.00,022.5,022.0,000.0,030.5,024.2,08.4,0000.0,0005.85,0013.74,0004.52
2024-02-29 19:16:00,SystemResetWarning,0824.7,5.00,000.00,022.6,022.0,000.0,030.6,024.2,08.8,0000.0,0005.86,0013.23,0004.54
2024-02-29 19:17:00,SystemResetWarning,0824.7,5.00,000.00,022.6,022.0,000.0,030.6,024.3,08.8,0000.0,0005.90,0012.92,0004.56
2024-02-29 19:18:00,SystemResetWarning,0824.7,5.00,000.00,022.6,022.1,000.0,030.6,024.3,08.4,0000.0,0005.95,0013.15,0004.56
2024-02-29 19:19:00,SystemResetWarning,0824.7,5.00,000.00,022.6,022.1,000.0,030.6,024.3,08.3,0000.0,0005.97,0013.17,0004.55
2024-02-29 19:20:00,SystemResetWarning,0824.7,5.00,000.00,022.6,022.1,000.0,030.6,024.3,08.4,0000.0,0005.95,0013.18,0004.53
2024-02-29 19:21:00,SystemResetWarning,0824.7,5.00,000.00,022.7,022.1,000.0,030.7,024.4,08.3,0000.0,0005.89,0013.22,0004.51
2024-02-29 19:22:00,SystemResetWarning,0824.7,5.00,000.00,022.7,022.2,000.0,030.7,024.4,08.2,0000.0,0005.90,0013.46,0004.51
2024-02-29 19:23:00,SystemResetWarning,0824.7,5.00,000.00,022.7,022.2,000.0,030.7,024.4,08.2,0000.0,0005.95,0013.34,0004.54
2024-02-29 19:24:00,SystemResetWarning,0824.6,5.01,000.00,022.7,022.2,000.0,030.7,024.4,08.5,0000.0,0005.97,0013.44,0004.57
2024-02-29 19:25:00,SystemResetWarning,0824.5,5.01,000.00,022.7,022.2,000.0,030.7,024.4,08.6,0000.0,0006.02,0013.83,0004.59
2024-02-29 19:26:00,SystemResetWarning,0824.5,5.00,000.00,022.8,022.2,000.0,030.8,024.4,08.6,0000.0,0006.02,0014.00,0004.59
2024-02-29 19:27:00,SystemResetWarning,0824.4,5.00,000.00,022.8,022.2,000.0,030.8,024.4,08.5,0000.0,0005.93,0013.80,0004.57
2024-02-29 19:28:00,SystemResetWarning,0824.4,5.00,000.00,022.8,022.3,000.0,030.8,024.5,08.4,0000.0,0005.84,0013.63,0004.52
2024-02-29 19:29:00,SystemResetWarning,0824.4,4.99,000.00,022.8,022.3,000.0,030.8,024.5,08.3,0000.0,0005.78,0013.36,0004.48
2024-02-29 19:30:00,SystemResetWarning,0824.4,4.99,000.00,022.8,022.3,000.0,030.8,024.5,08.4,0000.0,0005.73,0013.20,0004.46
2024-02-29 19:31:00,SystemResetWarning,0824.4,5.00,000.00,022.9,022.3,000.0,030.8,024.6,08.4,0000.0,0005.72,0013.09,0004.45
2024-02-29 19:32:00,SystemResetWarning,0824.3,5.01,000.00,022.9,022.3,000.0,030.9,024.6,08.2,0000.0,0005.72,0012.62,0004.44
2024-02-29 19:33:00,SystemResetWarning,0824.4,5.00,000.00,022.9,022.4,000.0,030.9,024.6,07.8,0000.0,0005.70,0012.29,0004.41
2024-02-29 19:34:00,SystemResetWarning,0824.4,5.00,000.00,022.9,022.4,000.0,030.9,024.6,07.8,0000.0,0005.62,0012.21,0004.35
2024-02-29 19:35:00,SystemResetWarning,0824.4,5.01,000.00,022.9,022.4,000.0,030.9,024.6,07.7,0000.0,0005.53,0011.94,0004.30
2024-02-29 19:36:00,SystemResetWarning,0824.4,5.00,000.00,023.0,022.4,000.0,030.9,024.7,07.8,0000.0,0005.49,0011.93,0004.25
2024-02-29 19:37:00,SystemResetWarning,0824.4,5.00,000.00,023.0,022.4,000.0,031.0,024.7,07.9,0000.0,0005.46,0011.94,0004.20
2024-02-29 19:38:00,SystemResetWarning,0824.4,5.01,000.00,023.0,022.5,000.0,031.0,024.7,07.9,0000.0,0005.49,0012.07,0004.17
2024-02-29 19:39:00,SystemResetWarning,0824.4,5.00,000.00,023.0,022.5,000.0,031.0,024.7,07.7,0000.0,0005.49,0012.10,0004.15
2024-02-29 19:40:00,SystemResetWarning,0824.4,4.99,000.00,023.0,022.5,000.0,031.0,024.8,07.8,0000.0,0005.47,0012.54,0004.13
2024-02-29 19:41:00,SystemResetWarning,0824.4,4.99,000.00,023.1,022.5,000.0,031.0,024.8,07.7,0000.0,0005.45,0013.03,0004.11
2024-02-29 19:42:00,SystemResetWarning,0824.3,5.00,000.00,023.1,022.5,000.0,031.1,024.8,07.8,0000.0,0005.42,0013.71,0004.10
2024-02-29 19:43:00,SystemResetWarning,0824.2,5.01,000.00,023.1,022.6,000.0,031.1,024.8,07.7,0000.0,0005.43,0013.59,0004.09
2024-02-29 19:44:00,SystemResetWarning,0824.1,5.01,000.00,023.1,022.6,000.0,031.1,024.8,07.7,0000.0,0005.41,0014.16,0004.07
2024-02-29 19:45:00,SystemResetWarning,0824.1,5.00,000.00,023.1,022.6,000.0,031.1,024.8,07.6,0000.0,0005.45,0015.18,0004.06
2024-02-29 19:46:00,SystemResetWarning,0824.1,5.00,000.00,023.2,022.6,000.0,031.1,024.9,07.6,0000.0,0005.49,0016.05,0004.05
2024-02-29 19:47:00,SystemResetWarning,0824.2,4.99,000.00,023.2,022.6,000.0,031.2,024.9,07.4,0000.0,0005.47,0016.25,0004.03
2024-02-29 19:48:00,SystemResetWarning,0824.3,4.99,000.00,023.2,022.7,000.0,031.2,024.9,07.4,0000.0,0005.45,0015.90,0004.00
2024-02-29 19:49:00,SystemResetWarning,0824.2,5.01,000.00,023.2,022.7,000.0,031.2,024.9,07.5,0000.0,0005.39,0015.86,0003.97
2024-02-29 19:50:00,SystemResetWarning,0824.1,5.01,000.00,023.2,022.7,000.0,031.2,024.9,07.4,0000.0,0005.34,0016.06,0003.93
2024-02-29 19:51:00,SystemResetWarning,0824.1,5.00,000.00,023.3,022.7,000.0,031.2,025.0,07.4,0000.0,0005.30,0015.82,0003.89
2024-02-29 19:52:00,SystemResetWarning,0824.2,4.99,000.00,023.3,022.7,000.0,031.3,025.0,07.5,0000.0,0005.30,0015.41,0003.86
2024-02-29 19:53:00,SystemResetWarning,0824.1,5.00,000.00,023.3,022.8,000.0,031.3,025.0,07.5,0000.0,0005.23,0015.12,0003.81
2024-02-29 19:54:00,SystemResetWarning,0824.0,5.00,000.00,023.3,022.8,000.0,031.3,025.0,07.4,0000.0,0005.16,0015.11,0003.79
2024-02-29 19:55:00,SystemResetWarning,0824.0,5.00,000.00,023.4,022.8,000.0,031.3,025.0,07.5,0000.0,0005.14,0014.59,0003.77
2024-02-29 19:56:00,SystemResetWarning,0824.0,5.00,000.00,023.4,022.8,000.0,031.3,025.0,07.7,0000.0,0005.08,0013.53,0003.76
2024-02-29 19:57:00,SystemResetWarning,0823.9,5.00,000.00,023.4,022.9,000.0,031.4,025.1,07.9,0000.0,0005.01,0013.39,0003.75
2024-02-29 19:58:00,SystemResetWarning,0824.0,5.01,000.00,023.4,022.9,000.0,031.4,025.1,07.7,0000.0,0004.99,0012.98,0003.73
2024-02-29 19:59:00,SystemResetWarning,0824.0,5.00,000.00,023.4,022.9,000.0,031.4,025.1,07.4,0000.0,0004.93,0012.62,0003.71
